Weather History for Providence, RI

Change the Weather History Date:

Sunday, July 7, 2013

  Actual Average Record
Temperature  
Mean Temperature 85 °F 73 °F  
Max Temperature 95 °F 82 °F 97 °F (1981)
Min Temperature 75 °F 64 °F 49 °F (1965)
Degree Days  
Heating Degree Days 0 0  
Month to date heating degree days 0 0  
Since 1 June heating degree days 24 43  
Since 1 July heating degree days 0 0  
Cooling Degree Days 20 8  
Month to date cooling degree days 114 54  
Year to date cooling degree days 322 212  
Since 1 June cooling degree days 278 186  
Growing Degree Days 34 (Base 50)    
Moisture  
Dew Point 72 °F    
Average Humidity 68    
Maximum Humidity 87    
Minimum Humidity 49    
Precipitation  
Precipitation 0.00 in 0.10 in 1.35 in (1984)
Month to date precipitation 0.23 0.63  
Year to date precipitation 24.91 24.34  
Snow  
Snow 0.00 in 0.00 in 0.00 in (2002)
Month to date snowfall 0.0 0.0  
Since 1 June snowfall 0.0 0.0  
Since 1 July snowfall 0.0 0.0  
Snow Depth 0.00 in    
Sea Level Pressure  
Sea Level Pressure 29.99 in    
Wind  
Wind Speed 7 mph (WSW)    
Max Wind Speed 20 mph    
Max Gust Speed 24 mph    
Visibility 10 miles    
Events      
T = Trace of Precipitation, MM = Missing Value Source: NWS Daily Summary

Daily Weather History Graph

Daily Weather History Graph

Search for Another Location

Airport:

Trip Planner

Search our weather history database for the weather conditions in past years. The results will help you decide how hot, cold, wet, or windy it might be!

Date:

Astronomy

Jul. 07, 2013 Rise Set
Actual Time 5:18 AM EDT 8:22 PM EDT
Civil Twilight 4:44 AM EDT 8:56 PM EDT
Nautical Twilight 4:01 AM EDT 9:39 PM EDT
Astronomical Twilight 3:10 AM EDT 10:29 PM EDT
Moon 4:52 AM EDT (7/7) 7:43 PM EDT (7/7)
Length of Visible Light 16h 11m
Length of Day
15h 04m
Waning Crescent, 0% of the Moon is Illuminated
Jul 7
Waning Crescent
Jul 8
New
Jul 15
First Quarter
Jul 22
Full
Jul 29
Last Quarter

Hourly Weather History & Observations

Time (EDT) Temp. Heat Index Dew Point Humidity Pressure Visibility Wind Dir Wind Speed Gust Speed Precip Events Conditions
12:51 AM 79.0 °F - 73.0 °F 82% 30.03 in 10.0 mi West 5.8 mph - N/A   Clear
1:51 AM 78.1 °F - 73.0 °F 84% 30.03 in 10.0 mi West 6.9 mph - N/A   Clear
2:51 AM 77.0 °F - 72.0 °F 84% 30.03 in 10.0 mi NNW 3.5 mph - N/A   Clear
3:51 AM 75.9 °F - 71.1 °F 85% 30.02 in 10.0 mi West 4.6 mph - N/A   Clear
4:51 AM 75.0 °F - 71.1 °F 87% 30.02 in 10.0 mi West 3.5 mph - N/A   Clear
5:51 AM 75.0 °F - 71.1 °F 87% 30.03 in 10.0 mi West 4.6 mph - N/A   Scattered Clouds
6:51 AM 78.1 °F - 70.0 °F 76% 30.03 in 10.0 mi Calm Calm - N/A   Scattered Clouds
7:51 AM 82.0 °F 85.9 °F 70.0 °F 67% 30.04 in 10.0 mi West 5.8 mph - N/A   Partly Cloudy
8:51 AM 86.0 °F 92.2 °F 72.0 °F 63% 30.03 in 10.0 mi West 5.8 mph - N/A   Partly Cloudy
9:51 AM 88.0 °F 93.8 °F 71.1 °F 57% 30.02 in 10.0 mi West 5.8 mph - N/A   Partly Cloudy
10:51 AM 89.1 °F 96.0 °F 72.0 °F 57% 30.01 in 10.0 mi WNW 8.1 mph - N/A   Scattered Clouds
11:51 AM 91.0 °F 98.2 °F 72.0 °F 53% 30.00 in 10.0 mi Variable 6.9 mph - N/A   Scattered Clouds
12:51 PM 89.1 °F 97.0 °F 73.0 °F 59% 29.99 in 10.0 mi South 9.2 mph - N/A   Scattered Clouds
1:51 PM 91.0 °F 100.4 °F 73.9 °F 57% 29.98 in 10.0 mi SSE 10.4 mph - N/A   Mostly Cloudy
2:51 PM 91.9 °F 100.7 °F 73.0 °F 54% 29.95 in 10.0 mi SW 11.5 mph - N/A   Mostly Cloudy
3:51 PM 93.0 °F 100.7 °F 72.0 °F 50% 29.95 in 10.0 mi SSW 15.0 mph 24.2 mph N/A   Scattered Clouds
4:51 PM 90.0 °F 94.5 °F 69.1 °F 50% 29.95 in 10.0 mi SW 13.8 mph - N/A   Mostly Cloudy
5:51 PM 87.1 °F 89.9 °F 66.9 °F 51% 29.95 in 10.0 mi SW 5.8 mph - N/A   Mostly Cloudy
6:51 PM 84.0 °F 87.8 °F 69.1 °F 61% 29.93 in 10.0 mi SSW 11.5 mph - N/A   Mostly Cloudy
7:51 PM 81.0 °F 84.9 °F 71.1 °F 72% 29.93 in 10.0 mi SW 9.2 mph - N/A   Mostly Cloudy
8:51 PM 80.1 °F 83.6 °F 71.1 °F 74% 29.94 in 10.0 mi WSW 8.1 mph - N/A   Mostly Cloudy
9:51 PM 79.0 °F - 72.0 °F 79% 29.96 in 10.0 mi SW 4.6 mph - N/A   Partly Cloudy
10:51 PM 78.1 °F - 72.0 °F 81% 29.95 in 10.0 mi SSW 3.5 mph - N/A   Partly Cloudy
11:51 PM 77.0 °F - 72.0 °F 84% 29.94 in 10.0 mi SSE 4.6 mph - N/A   Clear